Weather in Belye Berega

Russia / Bryansk Oblast     53°12′26″N   34°39′46″E
temp.,
°C
wind,
m/s
gust,
m/s
humid.,
%
clouds,
%
prec.,
mm/h
press.,
hPa
HPBL,
m
8 may, sat
sat800:00+8sse51491100 1.2 1010762
03:00+9sse61394100 4.9 1007727
06:00+9s51296100 3.1 1005881
09:00+9s31097100 7.1 1004708
12:00+9nw1299100 4.3 1004133
15:00+9nw1297100 6.8 1003138
18:00+8wnw3797100 1.3 1003479
21:00+4wnw61297100 4.2 1007995
9 may, sun
sun900:00+4wnw61393100 5.4 10091176
03:00+3wnw51290100 5.8 1012909
06:00+3wnw41191100 0.0 1014646
09:00+5nw587785 0.0 10161009
12:00+9nnw685095 0.1 10182032
15:00+10nw584994 0.2 10202038
18:00+11nw475156 0.0 10211944
21:00+5wnw38765 0.0 1024162
10 may, mon
mon1000:00+3nw26782 0.0 1026103
03:00+2nw23815 0.0 102846
06:00+2n23761 0.0 102963
09:00+10nne23495 0.0 1030516
12:00+14nne34364 0.0 10291410
15:00+15nne35335 0.0 10281709
18:00+14nne35460 0.0 10281273
21:00+8nne36720 0.0 102989
11 may, tue
tue1100:00+6ne26810 0.0 102998
03:00+4nne39800 0.0 1029157
06:00+5ne312760 0.0 1029312
09:00+12ne511500 0.0 1027720
12:00+16ene58435 0.0 10261046
15:00+18ene58526 0.0 10251247
18:00+16e596991 0.0 10251289
21:00+13ene3108283 0.1 1024465
12 may, wed
wed1200:00+11ne3109695 0.0 1024278
03:00+11e3797100 1.2 1022467
06:00+10se3697100 0.4 1022429
09:00+9ese2696100 2.9 1023304
12:00+15ese466619 0.1 10221344
15:00+16ese4756100 0.1 10211811
18:00+16e366462 0.0 10201105
21:00+11ene2584100 0.0 101995